Temperature
17 17 17 17 16 16 16 16 16 16 16 15 15 15 15 15 15 15 15 15 15 14 14 14 14 14 14 14 14 14 14 14 14 14 14 14 14 13 13 13 14 14 14
17 17 16 16 16 16 16 16 15 15 15 15 15 15 15 15 15 15 14 14 14 14 14 14 14 14 14 14 14 14 14 14 14 14 14 14 13 13 13 13 13 13 13
17 17 16 16 16 16 16 15 15 15 15 15 15 15 15 15 14 14 14 14 14 14 14 14 14 14 14 14 13 13 13 14 13 13 13 13 13 13 13 13 13 13 13
17 17 16 16 16 16 16 15 15 15 15 15 15 15 14 14 14 14 14 14 14 13 13 13 13 13 13 13 13 13 13 13 13 13 13 13 13 13 12 12 12 12 12
17 17 16 16 16 15 15 15 15 15 15 15 14 14 14 14 14 14 14 13 13 13 13 13 13 13 13 13 13 13 13 13 13 13 13 12 12 12 12 12 12 12 12
17 17 16 16 16 15 15 15 15 15 14 14 14 14 14 14 14 14 13 13 13 13 13 12 12 13 13 13 13 12 12 12 12 12 12 12 12 12 11 11 12 12 12
17 16 16 16 16 15 15 15 15 14 14 14 14 14 14 14 14 13 13 13 13 12 12 12 12 12 12 12 12 12 12 12 12 12 11 11 11 11 11 11 11 11 11
16 16 16 16 16 15 15 15 15 14 14 14 13 13 13 13 13 13 13 12 12 12 12 12 12 12 12 12 12 12 12 11 11 11 11 11 11 11 11 11 11 11 11
16 16 16 16 15 15 15 15 14 14 14 13 13 13 13 13 13 13 13 12 12 12 12 12 12 11 12 12 11 11 11 11 11 11 11 11 11 11 11 11 11 11 11
16 16 16 15 15 15 15 14 14 14 14 13 13 13 13 13 13 13 12 12 12 12 12 12 12 11 11 11 11 11 11 11 11 11 11 11 11 11 11 11 11 11 11
16 16 15 15 15 14 14 14 14 13 13 13 13 13 13 12 12 12 12 12 12 12 12 12 11 11 11 11 11 11 11 11 11 11 11 11 11 11 10 10 10 10 10
15 15 15 15 14 14 14 14 13 13 13 13 13 12 12 12 12 12 12 12 11 11 11 11 11 11 11 11 11 11 11 11 10 11 11 11 11 11 10 10 10 10 10
15 15 15 14 14 13 13 13 13 13 13 13 13 13 12 12 12 12 12 11 11 11 11 11 11 11 11 11 11 11 10 10 10 10 11 10 10 10 10 10 10 10 10
14 14 14 14 13 13 13 13 13 13 13 13 13 13 13 12 12 12 11 11 11 11 11 11 10 10 10 10 10 10 10 10 10 10 10 10 10 10 10 10 10 10 10
14 14 14 13 13 13 13 13 13 13 13 12 13 12 12 12 12 11 11 11 10 10 10 10 10 10 10 10 10 10 10 10 10 10 10 10 10 10 10 10 9 10 10
14 14 14 14 13 13 13 13 13 13 12 12 12 12 12 12 11 11 11 11 10 10 10 10 10 10 10 10 10 10 10 10 10 10 9 9 9 9 9 9 9 9 10
14 14 14 14 14 13 13 13 13 13 12 12 12 12 11 11 11 11 11 10 10 10 10 10 10 10 10 10 10 10 10 9 9 9 9 9 9 9 9 9 9 9 9
14 14 14 13 13 13 13 13 13 13 12 12 12 12 11 11 11 11 10 10 10 10 10 10 10 10 10 10 10 9 9 9 9 9 9 9 9 9 9 9 9 9 9
14 13 13 13 13 13 13 13 13 12 12 12 12 11 11 11 11 10 10 10 10 10 10 10 10 10 9 9 9 9 9 9 9 9 9 9 9 9 9 9 9 8 8
13 13 13 13 13 13 13 13 13 12 12 12 12 12 11 11 11 11 10 10 10 10 10 10 9 9 9 9 9 8 9 8 8 8 9 8 8 8 8 8 9 9 8
13 13 13 13 13 13 13 12 12 12 12 12 12 11 11 11 11 11 10 10 10 10 10 9 9 9 9 9 8 8 8 8 8 8 8 8 8 8 8 8 8 8 8
13 13 13 12 12 12 12 12 12 12 12 12 11 11 11 11 11 10 10 10 10 9 9 9 9 9 8 8 8 8 8 8 8 8 8 8 8 8 8 8 8 8 8
13 13 12 12 12 12 12 12 12 12 12 11 11 11 11 11 10 10 10 10 9 9 9 9 8 8 8 8 8 8 8 8 8 8 7 7 7 7 8 7 7 7 8
12 12 12 12 12 12 12 12 12 11 11 11 11 11 10 10 10 10 10 9 9 9 8 8 8 8 8 8 7 7 8 7 7 7 7 7 7 7 7 7 7 7 7
12 12 12 12 12 12 11 11 11 11 11 11 11 10 10 10 10 10 9 9 9 9 8 8 8 8 7 7 7 7 7 7 7 7 7 7 7 7 7 7 7 7 7
12 12 12 12 12 11 11 11 11 11 11 10 10 10 10 10 9 9 9 9 9 8 8 8 8 7 7 7 7 7 7 7 7 7 7 6 7 7 7 7 7 7 7
Wind_Speed
3 3 2 2 2 1 1 1 1 1 1 1 2 2 2 2 2 2 2 1 2 2 2 2 2 3 2 3 3 3 4 4 4 3 3 2 2 3 2 3 3 4 4
3 3 2 2 1 1 1 1 1 1 1 1 1 2 2 2 2 2 3 2 2 2 2 2 2 2 2 3 3 3 3 3 4 4 4 3 3 3 3 3 3 2 3
4 3 3 2 2 1 0 1 1 1 1 1 1 2 2 2 2 2 2 2 2 3 3 3 3 3 3 3 3 3 3 3 3 4 4 3 3 2 2 3 3 2 3
4 4 3 2 1 1 1 1 0 0 1 1 2 2 1 2 2 2 2 2 3 3 3 3 3 3 3 3 3 3 3 3 3 3 3 3 2 2 2 3 3 2 3
4 4 3 3 2 1 1 0 0 0 0 1 2 2 2 1 2 3 2 2 2 3 3 3 2 3 4 3 3 3 3 3 3 3 3 3 3 3 3 3 3 3 3
4 3 3 3 2 2 1 1 1 0 0 1 0 1 1 2 4 4 4 2 2 3 3 3 2 1 1 1 2 3 3 3 3 3 3 3 4 4 4 4 4 4 4
4 3 3 3 3 2 2 1 1 1 1 0 1 1 1 2 2 2 3 3 2 2 3 3 3 2 2 2 1 2 2 3 4 5 4 5 5 4 5 6 5 6 5
4 3 3 3 3 3 2 2 1 1 1 1 1 1 1 1 1 2 4 3 2 2 2 2 2 3 3 3 3 2 3 3 3 3 4 5 5 5 5 6 6 5 5
4 4 3 3 3 3 2 2 1 1 1 1 1 2 2 1 0 2 5 3 2 2 2 2 2 2 2 3 3 3 3 3 2 2 2 4 5 6 6 5 4 4 4
3 3 3 3 3 3 3 2 1 2 2 2 1 2 2 2 1 1 5 4 3 2 2 2 1 1 1 3 3 3 4 4 4 3 3 4 5 4 5 5 5 5 5
2 2 2 2 3 3 2 2 2 2 1 2 1 2 1 1 1 1 3 3 4 3 3 2 1 2 1 4 5 4 5 5 5 5 4 4 3 3 3 3 4 4 5
2 2 2 2 2 2 2 2 2 2 3 2 2 2 2 2 1 1 2 4 6 4 4 3 2 1 3 5 4 4 5 6 5 5 4 4 4 3 3 3 3 4 5
2 2 2 2 2 2 2 3 3 3 3 3 2 3 2 2 2 5 5 5 6 4 3 3 2 3 5 4 4 5 5 5 5 5 5 5 4 3 3 3 3 4 4
2 2 2 2 2 2 2 3 3 3 3 3 3 3 3 3 2 2 2 3 4 4 3 2 4 6 6 4 3 3 4 4 4 5 5 5 4 3 4 4 4 4 4
2 2 2 2 2 3 3 3 4 3 2 3 3 4 4 3 2 3 4 3 3 3 4 4 4 4 3 3 3 3 3 4 4 4 5 5 4 4 4 4 4 5 5
3 3 3 3 2 3 3 3 1 2 2 1 3 4 3 2 2 2 3 4 5 5 5 4 4 4 4 4 4 4 4 4 4 5 5 5 5 4 4 4 5 5 5
3 3 3 3 3 3 3 3 3 3 5 5 4 4 4 3 3 4 5 5 6 6 5 4 4 4 5 5 5 5 5 4 4 5 5 5 5 5 5 5 4 4 5
4 3 3 3 3 3 3 4 4 3 3 3 5 7 7 6 6 6 6 5 5 5 4 4 5 5 5 5 5 5 5 5 5 5 5 5 6 6 6 5 5 5 5
4 3 3 3 3 3 3 3 3 3 3 3 2 4 7 7 8 7 6 5 5 4 4 4 5 5 5 5 5 6 6 6 6 6 5 6 6 6 6 6 5 5 5
4 3 3 4 3 3 3 3 3 3 3 3 3 3 2 4 4 4 4 4 5 5 5 5 5 5 5 5 6 6 6 6 6 6 6 6 6 6 6 7 6 5 5
4 4 5 5 4 3 3 3 3 3 3 3 3 2 3 5 5 4 4 4 5 5 5 5 5 5 5 5 6 6 7 7 6 7 6 6 6 6 6 6 6 5 5
4 3 3 4 4 3 3 3 3 3 4 4 3 2 4 5 4 4 4 4 4 4 5 5 5 5 5 5 6 7 7 7 7 7 7 6 6 6 6 6 6 5 5
5 4 4 4 3 3 4 4 3 3 3 4 4 3 3 3 4 4 4 4 4 4 4 5 6 6 5 5 6 6 6 6 6 7 7 7 6 6 6 6 6 7 6
4 4 4 3 3 3 4 4 4 4 4 4 4 4 4 4 4 5 5 5 4 4 5 5 6 7 7 7 6 6 5 6 7 7 8 8 7 6 6 6 6 7 6
4 4 4 4 4 4 4 4 4 4 4 4 4 4 4 5 5 5 5 5 5 5 6 6 6 6 7 8 7 6 5 5 6 8 7 7 7 7 6 6 6 6 5
3 3 3 4 3 3 4 4 4 4 4 4 4 4 5 5 5 5 5 5 5 5 6 6 6 7 7 7 5 5 3 4 5 7 7 6 6 6 6 5 6 5 5
Wind_Direction
169 180 193 194 198 212 229 273 288 318 338 336 335 328 322 324 330 315 310 312 289 280 271 270 274 286 278 273 269 266 264 263 266 282 288 289 281 277 267 266 245 234 208
160 170 174 185 191 212 222 296 304 321 332 337 329 324 320 330 330 326 326 328 300 292 291 291 286 277 275 277 286 281 278 272 265 275 281 283 271 268 261 265 255 243 240
158 164 156 164 169 185 238 301 312 342 345 347 346 337 334 342 341 336 336 326 312 314 314 310 305 298 286 290 284 281 285 282 276 269 275 287 283 289 285 273 269 264 253
168 169 166 178 190 207 216 204 241 320 0 0 359 350 353 356 343 333 335 336 330 325 321 319 321 316 306 296 278 281 286 288 275 272 281 287 291 305 296 283 283 279 274
177 181 179 182 182 194 210 214 188 18 20 21 9 358 348 341 343 331 319 330 332 323 321 322 331 352 356 328 314 312 301 287 284 283 284 288 297 311 304 291 281 283 273
185 186 183 190 191 195 198 206 199 187 307 26 10 323 338 355 33 1 321 316 323 320 319 315 303 293 318 251 323 322 314 292 293 290 283 286 292 296 299 287 282 278 279
184 188 190 195 191 192 196 185 202 201 159 112 300 314 329 10 23 336 312 300 300 310 316 316 319 360 347 318 275 228 252 246 251 273 282 287 287 284 282 280 283 281 280
186 190 194 200 198 194 195 190 195 187 177 194 279 300 308 358 18 309 297 265 282 299 306 309 312 331 335 328 316 312 299 287 270 269 283 283 285 289 282 275 276 274 270
195 203 207 210 207 201 203 205 199 196 209 235 261 293 289 307 19 297 296 269 259 274 282 293 291 298 5 316 289 296 301 295 249 223 267 281 287 276 273 271 273 269 271
199 206 203 206 208 208 204 207 204 217 230 248 286 301 299 302 96 283 291 280 284 288 277 256 167 288 326 289 279 288 290 299 306 296 266 251 254 249 243 256 266 266 269
189 194 196 203 208 200 193 203 214 228 246 267 274 268 265 281 183 214 290 289 300 293 297 297 345 106 265 277 277 280 290 294 289 280 275 276 271 265 264 270 279 277 275
186 193 190 197 217 186 187 206 218 231 229 239 250 262 248 230 252 197 240 265 298 297 299 308 354 82 278 275 276 287 284 276 274 277 283 287 285 286 285 282 277 281 282
182 183 169 176 211 208 213 217 222 232 247 250 256 265 264 257 197 195 215 234 257 276 300 338 311 255 257 255 239 253 259 267 277 283 288 288 289 294 288 270 259 258 265
188 183 174 182 202 204 234 241 249 253 255 260 268 274 272 257 262 250 250 240 224 251 279 256 228 237 248 268 259 250 266 285 288 287 289 288 288 281 276 276 271 269 269
196 193 198 205 218 224 232 249 256 261 283 281 282 285 288 285 352 359 299 290 299 306 293 277 280 282 281 283 286 287 284 280 282 292 293 290 287 285 281 281 274 268 267
213 214 224 225 220 235 229 224 199 238 159 220 300 302 305 343 351 317 297 296 296 292 278 273 277 284 291 294 293 289 286 291 295 294 289 283 281 279 278 275 271 270 270
228 225 239 236 229 234 240 244 239 212 204 207 216 240 256 273 267 262 260 261 259 250 256 272 279 285 287 288 288 286 288 291 285 278 278 280 279 277 276 275 273 274 276
243 218 234 239 241 241 246 252 255 255 241 229 207 205 214 224 233 241 242 247 247 237 264 277 280 282 282 284 287 287 287 287 282 280 279 281 280 277 275 272 267 269 270
247 242 243 257 253 253 254 257 257 260 265 261 240 192 200 212 218 228 230 254 276 279 278 278 281 284 287 287 288 288 287 285 286 283 280 281 280 280 276 270 263 253 260
237 230 244 252 250 248 249 257 263 257 258 264 270 276 233 240 250 235 236 264 276 283 285 282 280 283 284 283 280 280 279 279 281 279 281 279 276 274 270 267 263 255 249
247 218 210 241 248 251 251 254 261 264 264 265 272 294 293 276 276 277 275 271 276 283 286 289 286 279 280 281 282 281 281 280 277 277 275 275 277 275 272 266 258 256 255
251 242 229 238 243 252 259 259 259 259 266 271 276 250 200 255 280 287 287 284 282 282 284 286 286 287 287 284 280 279 279 280 280 276 274 273 273 269 265 262 259 254 251
249 245 238 241 247 243 252 258 263 268 275 280 285 291 284 288 292 291 291 291 293 292 289 286 286 286 287 286 284 282 281 282 281 281 278 273 270 264 260 257 257 256 248
250 251 250 246 248 250 256 265 270 270 270 278 283 284 286 288 287 290 292 296 295 291 292 290 285 286 289 290 288 288 293 298 292 280 278 275 268 261 253 252 256 255 249
249 249 249 249 249 251 253 260 267 274 281 284 286 290 294 294 289 288 290 292 290 289 292 291 290 290 292 293 295 305 339 330 303 295 278 269 263 259 254 253 251 253 250
254 253 253 255 255 261 264 265 269 274 279 283 288 291 292 293 292 292 292 291 291 291 291 291 295 297 296 292 307 331 339 313 294 289 280 265 257 252 251 250 249 247 246
Height
1522 1522 1523 1522 1522 1522 1522 1521 1520 1520 1519 1518 1517 1516 1516 1515 1514 1513 1513 1512 1511 1511 1510 1510 1510 1509 1509 1510 1510 1509 1509 1509 1508 1508 1508 1507 1506 1505 1505 1505 1505 1504 1504
1522 1522 1522 1521 1521 1521 1521 1520 1520 1519 1518 1517 1516 1515 1515 1514 1513 1512 1511 1511 1510 1510 1509 1508 1508 1508 1507 1507 1507 1507 1506 1506 1506 1505 1504 1504 1503 1503 1502 1502 1502 1502 1502
1521 1521 1521 1521 1520 1520 1520 1519 1519 1518 1517 1516 1515 1514 1513 1513 1512 1511 1510 1509 1509 1508 1508 1507 1506 1506 1505 1505 1504 1504 1504 1504 1503 1502 1502 1502 1501 1501 1500 1500 1500 1499 1499
1520 1520 1520 1520 1519 1519 1518 1518 1517 1517 1516 1515 1514 1513 1512 1512 1510 1509 1509 1508 1507 1506 1506 1505 1504 1504 1503 1502 1502 1502 1501 1501 1501 1500 1500 1499 1499 1498 1498 1497 1497 1497 1497
1518 1519 1518 1518 1518 1517 1517 1516 1516 1516 1515 1514 1513 1512 1511 1510 1509 1508 1508 1507 1506 1505 1504 1503 1502 1502 1501 1500 1500 1500 1499 1499 1499 1498 1498 1497 1497 1496 1496 1495 1495 1494 1494
1516 1517 1516 1516 1516 1516 1515 1515 1514 1514 1513 1513 1512 1511 1510 1509 1508 1507 1506 1505 1504 1503 1503 1502 1501 1500 1499 1498 1498 1497 1497 1497 1496 1496 1495 1495 1494 1494 1493 1493 1493 1492 1491
1514 1515 1515 1515 1515 1514 1514 1514 1513 1512 1512 1511 1510 1509 1508 1507 1506 1505 1504 1503 1503 1502 1501 1500 1500 1500 1498 1497 1496 1495 1495 1494 1494 1494 1493 1493 1492 1492 1490 1490 1489 1489 1488
1512 1513 1513 1513 1513 1513 1512 1512 1511 1511 1510 1509 1509 1507 1506 1505 1505 1504 1503 1502 1502 1501 1500 1499 1498 1497 1496 1495 1495 1494 1494 1493 1492 1492 1491 1491 1490 1489 1488 1487 1486 1485 1484
1510 1511 1511 1511 1511 1511 1510 1510 1510 1509 1508 1507 1507 1506 1505 1504 1503 1502 1501 1501 1500 1499 1498 1497 1496 1496 1495 1494 1493 1492 1492 1491 1491 1490 1489 1488 1487 1486 1485 1485 1484 1483 1481
1508 1508 1508 1508 1508 1508 1508 1508 1508 1507 1506 1506 1505 1504 1503 1502 1501 1500 1499 1500 1499 1498 1497 1496 1494 1494 1493 1492 1491 1491 1490 1489 1489 1487 1486 1485 1484 1483 1482 1482 1481 1480 1479
1506 1506 1506 1506 1506 1506 1506 1506 1505 1505 1505 1504 1503 1502 1500 1500 1499 1498 1497 1497 1497 1496 1495 1494 1493 1492 1491 1490 1489 1488 1487 1487 1486 1485 1484 1483 1482 1481 1480 1479 1478 1477 1477
1504 1504 1503 1503 1504 1504 1504 1503 1503 1503 1503 1502 1501 1500 1499 1498 1497 1496 1495 1495 1494 1494 1493 1492 1491 1490 1489 1488 1487 1485 1485 1484 1483 1483 1482 1481 1480 1479 1478 1476 1475 1474 1473
1502 1502 1501 1501 1501 1502 1502 1501 1501 1501 1501 1501 1500 1499 1498 1497 1495 1494 1493 1492 1492 1491 1490 1489 1488 1487 1486 1485 1484 1483 1482 1482 1481 1481 1480 1479 1478 1476 1475 1474 1472 1471 1470
1500 1499 1499 1499 1500 1500 1500 1500 1500 1500 1499 1498 1498 1497 1496 1495 1494 1493 1492 1491 1490 1489 1488 1487 1485 1484 1483 1482 1482 1481 1480 1479 1478 1478 1477 1476 1475 1473 1472 1471 1470 1469 1468
1498 1498 1498 1498 1498 1498 1497 1497 1497 1497 1497 1496 1495 1495 1494 1493 1491 1490 1489 1489 1488 1486 1485 1484 1483 1483 1481 1480 1480 1478 1478 1477 1476 1475 1474 1473 1472 1470 1469 1468 1467 1466 1465
1496 1496 1496 1496 1496 1495 1495 1495 1494 1494 1493 1492 1491 1491 1490 1489 1488 1487 1486 1485 1484 1483 1483 1482 1481 1480 1479 1478 1477 1476 1475 1474 1473 1472 1471 1470 1469 1467 1466 1465 1464 1463 1462
1493 1494 1494 1493 1493 1493 1492 1492 1492 1491 1490 1489 1488 1488 1487 1486 1485 1484 1483 1483 1482 1481 1480 1479 1479 1478 1477 1476 1475 1474 1472 1471 1470 1469 1468 1467 1466 1464 1463 1462 1461 1460 1459
1491 1491 1491 1491 1490 1490 1490 1489 1489 1489 1488 1487 1486 1485 1484 1483 1482 1482 1481 1480 1479 1478 1478 1477 1476 1475 1474 1473 1472 1471 1469 1468 1467 1466 1465 1463 1462 1461 1460 1459 1458 1457 1456
1489 1489 1488 1488 1488 1488 1487 1487 1486 1486 1485 1484 1484 1483 1481 1480 1480 1479 1478 1478 1477 1476 1475 1474 1473 1472 1471 1470 1468 1467 1466 1465 1464 1462 1461 1460 1459 1457 1456 1456 1455 1454 1453
1486 1486 1485 1486 1486 1485 1484 1484 1483 1483 1482 1481 1481 1480 1479 1478 1477 1476 1476 1475 1474 1473 1472 1471 1470 1469 1468 1466 1465 1464 1463 1461 1460 1459 1458 1456 1455 1454 1453 1452 1452 1451 1450
1484 1483 1482 1483 1483 1482 1482 1481 1481 1480 1479 1479 1478 1477 1476 1475 1475 1474 1473 1472 1471 1470 1469 1468 1466 1465 1464 1463 1462 1460 1459 1457 1456 1455 1454 1452 1451 1450 1449 1449 1448 1448 1447
1481 1481 1480 1480 1480 1479 1479 1478 1478 1477 1476 1476 1475 1474 1472 1472 1472 1471 1470 1469 1468 1467 1465 1464 1463 1462 1461 1459 1458 1456 1455 1453 1452 1451 1449 1448 1447 1446 1446 1445 1444 1444 1444
1478 1478 1478 1477 1477 1476 1476 1476 1475 1474 1474 1473 1473 1472 1470 1469 1469 1468 1467 1466 1465 1463 1462 1460 1459 1458 1457 1456 1454 1453 1451 1449 1448 1446 1445 1444 1443 1442 1441 1441 1440 1440 1440
1476 1475 1475 1474 1474 1474 1473 1473 1472 1472 1471 1470 1470 1469 1468 1467 1466 1465 1464 1463 1461 1460 1459 1457 1456 1454 1453 1452 1450 1449 1447 1445 1444 1442 1440 1439 1439 1438 1437 1437 1436 1436 1436
1473 1472 1472 1472 1471 1471 1470 1470 1469 1469 1468 1468 1467 1466 1465 1464 1463 1462 1461 1459 1458 1456 1455 1453 1452 1451 1449 1447 1446 1444 1442 1440 1438 1437 1436 1435 1434 1434 1433 1433 1433 1433 1433
1470 1470 1469 1469 1469 1468 1468 1467 1467 1466 1466 1465 1464 1463 1462 1461 1460 1459 1457 1456 1454 1453 1451 1450 1448 1447 1445 1443 1441 1439 1437 1435 1434 1433 1432 1431 1431 1430 1430 1430 1430 1430 1430